Time,TemperatureF,DewpointF,PressureIn,WindDirection,WindDirectionDegrees,WindSpeedMPH,WindSpeedGustMPH,Humidity,HourlyPrecipIn,Conditions,Clouds,dailyrainin,SoftwareType,DateUTC
2013-11-11 00:01:00,37.0,31.4,30.17,WSW,254,5.1,8.1,80,0.00,RA,,0.00,WeatherDisplay:10.37,2013-11-11 05:01:00,
2013-11-11 00:06:00,36.9,31.3,30.17,WSW,257,7.2,9.2,80,0.00,RA,,0.00,WeatherDisplay:10.37,2013-11-11 05:06:00,
2013-11-11 00:12:00,36.9,31.3,30.17,WSW,256,4.8,6.9,80,0.00,SCT,,0.00,WeatherDisplay:10.37,2013-11-11 05:12:00,
2013-11-11 00:17:00,37.0,31.4,30.16,West,264,5.5,10.4,80,0.00,SCT,,0.00,WeatherDisplay:10.37,2013-11-11 05:17:00,
2013-11-11 00:22:00,37.0,31.4,30.16,WSW,257,4.2,8.0,80,0.00,SCT,,0.00,WeatherDisplay:10.37,2013-11-11 05:22:00,
2013-11-11 00:27:00,37.0,31.4,30.16,West,259,4.3,6.9,80,0.00,SCT,,0.00,WeatherDisplay:10.37,2013-11-11 05:27:00,
2013-11-11 00:32:00,36.9,31.3,30.17,WSW,252,7.5,9.2,80,0.00,SCT,,0.00,WeatherDisplay:10.37,2013-11-11 05:32:00,
2013-11-11 00:37:00,36.9,31.3,30.16,West,259,5.9,8.0,80,0.00,SCT,,0.00,WeatherDisplay:10.37,2013-11-11 05:37:00,
2013-11-11 00:42:00,36.7,31.4,30.16,WSW,255,5.4,6.9,81,0.00,SCT,,0.00,WeatherDisplay:10.37,2013-11-11 05:42:00,
2013-11-11 00:47:00,36.5,31.2,30.16,WSW,253,3.0,4.6,81,0.00,SCT,,0.00,WeatherDisplay:10.37,2013-11-11 05:47:00,
2013-11-11 00:52:00,36.5,31.2,30.16,WNW,295,6.0,9.2,81,0.00,SCT,,0.00,WeatherDisplay:10.37,2013-11-11 05:52:00,
2013-11-11 00:57:00,36.5,31.2,30.16,West,269,5.6,8.1,81,0.00,SCT,,0.00,WeatherDisplay:10.37,2013-11-11 05:57:00,
2013-11-11 01:02:00,36.4,31.1,30.16,WNW,285,5.6,6.9,81,0.00,SCT,,0.00,WeatherDisplay:10.37,2013-11-11 06:02:00,
2013-11-11 01:07:00,36.3,31.0,30.16,WSW,240,3.9,6.9,81,0.00,SCT,,0.00,WeatherDisplay:10.37,2013-11-11 06:07:00,
2013-11-11 01:12:00,36.1,30.8,30.16,West,262,5.4,5.8,81,0.00,SCT,,0.00,WeatherDisplay:10.37,2013-11-11 06:12:00,
2013-11-11 01:17:00,36.0,31.0,30.16,WSW,249,6.1,6.9,82,0.00,SCT,,0.00,WeatherDisplay:10.37,2013-11-11 06:17:00,
2013-11-11 01:22:00,35.7,30.7,30.16,SW,232,4.6,5.8,82,0.00,SCT,,0.00,WeatherDisplay:10.37,2013-11-11 06:22:00,
2013-11-11 01:27:00,35.2,30.6,30.16,West,264,4.9,5.8,83,0.00,SCT,,0.00,WeatherDisplay:10.37,2013-11-11 06:27:00,
2013-11-11 01:32:00,35.1,30.8,30.16,West,259,4.8,7.0,84,0.00,SCT,,0.00,WeatherDisplay:10.37,2013-11-11 06:32:00,
2013-11-11 01:37:00,35.1,30.8,30.16,WSW,248,3.8,4.6,84,0.00,SCT,,0.00,WeatherDisplay:10.37,2013-11-11 06:37:00,
2013-11-11 01:42:00,34.8,30.5,30.15,WSW,258,3.9,4.6,84,0.00,SCT,,0.00,WeatherDisplay:10.37,2013-11-11 06:42:00,
2013-11-11 01:47:00,34.7,30.7,30.15,SW,232,4.1,5.8,85,0.00,SCT,,0.00,WeatherDisplay:10.37,2013-11-11 06:47:00,
2013-11-11 01:52:00,34.5,30.5,30.15,WSW,243,3.8,5.8,85,0.00,SCT,,0.00,WeatherDisplay:10.37,2013-11-11 06:52:00,
2013-11-11 01:57:00,34.5,30.7,30.15,WSW,257,5.6,5.8,86,0.00,SCT,,0.00,WeatherDisplay:10.37,2013-11-11 06:57:00,
2013-11-11 02:02:00,34.6,30.8,30.15,WSW,248,4.7,6.9,86,0.00,SCT,,0.00,WeatherDisplay:10.37,2013-11-11 07:02:00,
2013-11-11 02:07:00,34.6,30.8,30.15,WSW,247,3.3,4.0,86,0.00,SCT,,0.00,WeatherDisplay:10.37,2013-11-11 07:07:00,
2013-11-11 02:12:00,34.6,30.8,30.15,WSW,240,3.0,8.1,86,0.00,SCT,,0.00,WeatherDisplay:10.37,2013-11-11 07:12:00,
2013-11-11 02:17:00,34.8,31.0,30.15,SW,231,3.0,3.5,86,0.00,SCT,,0.00,WeatherDisplay:10.37,2013-11-11 07:17:00,
2013-11-11 02:22:00,34.8,31.0,30.15,WSW,239,3.3,4.6,86,0.00,SCT,,0.00,WeatherDisplay:10.37,2013-11-11 07:22:00,
2013-11-11 02:27:00,34.8,31.0,30.15,WSW,248,3.7,4.0,86,0.00,SCT,,0.00,WeatherDisplay:10.37,2013-11-11 07:27:00,
2013-11-11 02:32:00,34.8,31.0,30.15,SW,236,4.5,5.8,86,0.00,SCT,,0.00,WeatherDisplay:10.37,2013-11-11 07:32:00,
2013-11-11 02:37:00,34.7,30.9,30.15,West,269,4.3,5.8,86,0.00,SCT,,0.00,WeatherDisplay:10.37,2013-11-11 07:37:00,
2013-11-11 02:42:00,34.7,30.9,30.15,West,259,3.1,4.0,86,0.00,SCT,,0.00,WeatherDisplay:10.37,2013-11-11 07:42:00,
2013-11-11 02:47:00,34.9,31.4,30.15,West,280,2.6,3.5,87,0.00,SCT,,0.00,WeatherDisplay:10.37,2013-11-11 07:47:00,
2013-11-11 02:52:00,35.2,31.4,30.14,West,280,4.3,6.0,86,0.00,SCT,,0.00,WeatherDisplay:10.37,2013-11-11 07:52:00,
2013-11-11 02:57:00,35.4,31.3,30.14,West,273,5.2,5.2,85,0.00,SCT,,0.00,WeatherDisplay:10.37,2013-11-11 07:57:00,
2013-11-11 03:02:00,35.6,31.5,30.14,West,274,3.6,6.9,85,0.00,SCT,,0.00,WeatherDisplay:10.37,2013-11-11 08:02:00,
2013-11-11 03:07:00,35.9,31.5,30.14,West,260,5.7,9.2,84,0.00,SCT,,0.00,WeatherDisplay:10.37,2013-11-11 08:07:00,
2013-11-11 03:12:00,36.3,31.3,30.14,WSW,257,4.4,9.2,82,0.00,SCT,,0.00,WeatherDisplay:10.37,2013-11-11 08:12:00,
2013-11-11 03:17:00,36.3,31.0,30.14,WSW,248,4.9,9.0,81,0.00,SCT,,0.00,WeatherDisplay:10.37,2013-11-11 08:17:00,
2013-11-11 03:22:00,36.2,30.9,30.14,SW,233,4.9,6.0,81,0.00,SCT,,0.00,WeatherDisplay:10.37,2013-11-11 08:22:00,
2013-11-11 03:27:00,35.3,30.4,30.13,WSW,250,3.5,5.0,82,0.00,SCT,,0.00,WeatherDisplay:10.37,2013-11-11 08:27:00,
2013-11-11 03:32:00,34.8,30.5,30.14,WSW,248,3.1,3.5,84,0.00,SCT,,0.00,WeatherDisplay:10.37,2013-11-11 08:32:00,
2013-11-11 03:37:00,34.6,30.6,30.13,SW,235,3.2,3.5,85,0.00,SCT,,0.00,WeatherDisplay:10.37,2013-11-11 08:37:00,
2013-11-11 03:42:00,34.4,30.4,30.13,SW,225,1.5,2.3,85,0.00,SCT,,0.00,WeatherDisplay:10.37,2013-11-11 08:42:00,
2013-11-11 03:47:00,34.3,30.5,30.13,SSW,192,1.2,2.3,86,0.00,SCT,,0.00,WeatherDisplay:10.37,2013-11-11 08:47:00,
2013-11-11 03:52:00,34.2,30.4,30.13,SW,226,0.8,2.3,86,0.00,SCT,,0.00,WeatherDisplay:10.37,2013-11-11 08:52:00,
2013-11-11 03:58:00,34.0,30.3,30.13,SW,214,1.0,2.3,86,0.00,SCT,,0.00,WeatherDisplay:10.37,2013-11-11 08:58:00,
2013-11-11 04:03:00,33.8,30.1,30.14,South,173,0.6,3.5,86,0.00,CLR,,0.00,WeatherDisplay:10.37,2013-11-11 09:03:00,
2013-11-11 04:08:00,33.7,30.2,30.14,South,174,1.6,3.5,87,0.00,CLR,,0.00,WeatherDisplay:10.37,2013-11-11 09:08:00,
2013-11-11 04:13:00,33.6,30.4,30.14,SW,222,2.3,3.5,88,0.00,CLR,,0.00,WeatherDisplay:10.37,2013-11-11 09:13:00,
2013-11-11 04:18:00,33.6,30.4,30.14,SW,217,2.1,3.5,88,0.00,CLR,,0.00,WeatherDisplay:10.37,2013-11-11 09:18:00,
2013-11-11 04:23:00,33.7,30.5,30.14,West,265,1.5,2.3,88,0.00,CLR,,0.00,WeatherDisplay:10.37,2013-11-11 09:23:00,
2013-11-11 04:28:00,33.7,30.5,30.14,SW,217,2.4,3.5,88,0.00,CLR,,0.00,WeatherDisplay:10.37,2013-11-11 09:28:00,
2013-11-11 04:33:00,33.7,30.5,30.13,South,186,0.9,2.3,88,0.00,CLR,,0.00,WeatherDisplay:10.37,2013-11-11 09:33:00,
2013-11-11 04:38:00,33.9,30.7,30.13,SSW,210,2.3,3.5,88,0.00,CLR,,0.00,WeatherDisplay:10.37,2013-11-11 09:38:00,
2013-11-11 04:43:00,33.9,30.7,30.13,SW,214,2.3,3.5,88,0.00,CLR,,0.00,WeatherDisplay:10.37,2013-11-11 09:43:00,
2013-11-11 04:48:00,34.1,30.9,30.13,SW,222,4.0,4.6,88,0.00,CLR,,0.00,WeatherDisplay:10.37,2013-11-11 09:48:00,
2013-11-11 04:53:00,34.2,31.0,30.13,SW,219,2.7,4.6,88,0.00,CLR,,0.00,WeatherDisplay:10.37,2013-11-11 09:53:00,
2013-11-11 04:58:00,34.2,31.0,30.13,SW,225,3.5,4.6,88,0.00,CLR,,0.00,WeatherDisplay:10.37,2013-11-11 09:58:00,
2013-11-11 05:03:00,34.3,31.1,30.13,SW,221,2.0,4.0,88,0.00,BKN,,0.00,WeatherDisplay:10.37,2013-11-11 10:03:00,
2013-11-11 05:08:00,34.3,31.1,30.12,SSW,200,1.3,4.0,88,0.00,BKN,,0.00,WeatherDisplay:10.37,2013-11-11 10:08:00,
2013-11-11 05:13:00,34.3,31.1,30.12,SSW,212,0.9,2.3,88,0.00,BKN,,0.00,WeatherDisplay:10.37,2013-11-11 10:13:00,
2013-11-11 05:18:00,34.4,31.2,30.12,SW,222,2.3,3.5,88,0.00,BKN,,0.00,WeatherDisplay:10.37,2013-11-11 10:18:00,
2013-11-11 05:23:00,34.5,31.3,30.13,SW,219,2.9,3.5,88,0.00,BKN,,0.00,WeatherDisplay:10.37,2013-11-11 10:23:00,
2013-11-11 05:28:00,34.6,31.4,30.12,SSW,212,2.2,3.5,88,0.00,BKN,,0.00,WeatherDisplay:10.37,2013-11-11 10:28:00,
2013-11-11 05:33:00,34.6,31.4,30.12,SW,229,2.6,4.0,88,0.00,BKN,,0.00,WeatherDisplay:10.37,2013-11-11 10:33:00,
2013-11-11 05:38:00,34.7,31.2,30.12,SW,228,2.1,3.5,87,0.00,BKN,,0.00,WeatherDisplay:10.37,2013-11-11 10:38:00,
2013-11-11 05:43:00,34.8,31.3,30.12,South,183,1.7,5.8,87,0.00,BKN,,0.00,WeatherDisplay:10.37,2013-11-11 10:43:00,
2013-11-11 05:48:00,34.9,31.4,30.11,SSW,207,1.4,3.5,87,0.00,BKN,,0.00,WeatherDisplay:10.37,2013-11-11 10:48:00,
2013-11-11 05:53:00,35.0,31.5,30.11,SSW,205,1.2,3.5,87,0.00,BKN,,0.00,WeatherDisplay:10.37,2013-11-11 10:53:00,
2013-11-11 05:58:00,35.1,31.3,30.11,SW,219,2.5,3.5,86,0.00,BKN,,0.00,WeatherDisplay:10.37,2013-11-11 10:58:00,
2013-11-11 06:03:00,35.2,31.4,30.10,SW,228,1.3,2.0,86,0.00,BKN,,0.00,WeatherDisplay:10.37,2013-11-11 11:03:00,
2013-11-11 06:08:00,35.3,31.5,30.10,SW,225,1.7,3.5,86,0.00,BKN,,0.00,WeatherDisplay:10.37,2013-11-11 11:08:00,
2013-11-11 06:13:00,35.5,31.4,30.10,SSE,161,1.4,3.5,85,0.00,BKN,,0.00,WeatherDisplay:10.37,2013-11-11 11:13:00,
2013-11-11 06:18:00,35.6,31.5,30.10,SSE,163,2.2,4.0,85,0.00,BKN,,0.00,WeatherDisplay:10.37,2013-11-11 11:18:00,
2013-11-11 06:23:00,35.8,31.4,30.09,SE,136,1.7,2.3,84,0.00,BKN,,0.00,WeatherDisplay:10.37,2013-11-11 11:23:00,
2013-11-11 06:28:00,35.9,31.5,30.10,SW,226,2.3,3.5,84,0.00,BKN,,0.00,WeatherDisplay:10.37,2013-11-11 11:28:00,
2013-11-11 06:33:00,35.9,31.5,30.10,SW,219,1.7,2.3,84,0.00,BKN,,0.00,WeatherDisplay:10.37,2013-11-11 11:33:00,
2013-11-11 06:38:00,36.1,31.4,30.09,SSW,195,2.7,3.5,83,0.00,BKN,,0.00,WeatherDisplay:10.37,2013-11-11 11:38:00,
2013-11-11 06:43:00,36.1,31.4,30.09,SSW,205,2.7,4.6,83,0.00,BKN,,0.00,WeatherDisplay:10.37,2013-11-11 11:43:00,
2013-11-11 06:48:00,36.2,31.5,30.09,South,191,1.8,3.5,83,0.00,BKN,,0.00,WeatherDisplay:10.37,2013-11-11 11:48:00,
2013-11-11 06:53:00,36.3,31.6,30.10,SW,219,2.2,3.5,83,0.00,BKN,,0.00,WeatherDisplay:10.37,2013-11-11 11:53:00,
2013-11-11 06:58:00,36.3,31.3,30.09,SW,217,1.7,3.5,82,0.00,BKN,,0.00,WeatherDisplay:10.37,2013-11-11 11:58:00,
2013-11-11 07:03:00,36.4,31.4,30.09,South,190,2.1,3.5,82,0.00,BKN,,0.00,WeatherDisplay:10.37,2013-11-11 12:03:00,
2013-11-11 07:08:00,36.8,31.5,30.09,SSW,201,2.5,4.0,81,0.00,BKN,,0.00,WeatherDisplay:10.37,2013-11-11 12:08:00,
2013-11-11 07:13:00,36.8,31.2,30.08,SSE,160,1.2,3.5,80,0.00,BKN,,0.00,WeatherDisplay:10.37,2013-11-11 12:13:00,
2013-11-11 07:18:00,36.6,31.3,30.08,SSW,200,2.0,4.0,81,0.00,BKN,,0.00,WeatherDisplay:10.37,2013-11-11 12:18:00,
2013-11-11 07:23:00,36.4,31.4,30.08,South,173,2.6,4.0,82,0.00,BKN,,0.00,WeatherDisplay:10.37,2013-11-11 12:23:00,
2013-11-11 07:28:00,36.4,31.7,30.08,SSE,154,1.6,2.3,83,0.00,BKN,,0.00,WeatherDisplay:10.37,2013-11-11 12:28:00,
2013-11-11 07:33:00,36.4,31.7,30.07,SSE,158,0.7,1.2,83,0.00,BKN,,0.00,WeatherDisplay:10.37,2013-11-11 12:33:00,
2013-11-11 07:38:00,36.4,32.0,30.08,SSE,165,1.9,3.5,84,0.00,BKN,,0.00,WeatherDisplay:10.37,2013-11-11 12:38:00,
2013-11-11 07:43:00,36.4,32.0,30.08,South,176,1.9,2.3,84,0.00,BKN,,0.00,WeatherDisplay:10.37,2013-11-11 12:43:00,
2013-11-11 07:48:00,36.5,32.4,30.08,SSW,207,2.1,3.5,85,0.00,BKN,,0.00,WeatherDisplay:10.37,2013-11-11 12:48:00,
2013-11-11 07:53:00,36.7,32.6,30.08,SSW,202,3.1,4.6,85,0.00,BKN,,0.00,WeatherDisplay:10.37,2013-11-11 12:53:00,
2013-11-11 07:58:00,36.9,32.8,30.08,South,181,2.6,3.5,85,0.00,BKN,,0.00,WeatherDisplay:10.37,2013-11-11 12:58:00,
2013-11-11 08:03:00,37.2,33.1,30.08,SSW,204,4.4,4.4,85,0.00,BKN,,0.00,WeatherDisplay:10.37,2013-11-11 13:03:00,
2013-11-11 08:08:00,37.5,33.1,30.07,SSE,165,4.7,7.0,84,0.00,BKN,,0.00,WeatherDisplay:10.37,2013-11-11 13:08:00,
2013-11-11 08:13:00,37.9,33.2,30.08,SSW,207,3.7,6.9,83,0.00,BKN,,0.00,WeatherDisplay:10.37,2013-11-11 13:13:00,
2013-11-11 08:18:00,38.3,33.6,30.07,SW,219,4.3,9.2,83,0.00,BKN,,0.00,WeatherDisplay:10.37,2013-11-11 13:18:00,
2013-11-11 08:23:00,38.7,33.7,30.07,SSE,160,4.3,6.9,82,0.00,BKN,,0.00,WeatherDisplay:10.37,2013-11-11 13:23:00,
2013-11-11 08:28:00,39.0,33.7,30.07,South,169,3.5,4.6,81,0.00,BKN,,0.00,WeatherDisplay:10.37,2013-11-11 13:28:00,
2013-11-11 08:33:00,39.1,33.8,30.06,SSW,208,2.6,5.8,81,0.00,BKN,,0.00,WeatherDisplay:10.37,2013-11-11 13:33:00,
2013-11-11 08:38:00,39.2,33.9,30.06,South,183,4.3,4.6,81,0.00,BKN,,0.00,WeatherDisplay:10.37,2013-11-11 13:38:00,
2013-11-11 08:43:00,39.4,34.1,30.06,SE,141,2.8,5.8,81,0.00,BKN,,0.00,WeatherDisplay:10.37,2013-11-11 13:43:00,
2013-11-11 08:48:00,39.6,34.2,30.06,SW,214,2.6,5.8,81,0.00,BKN,,0.00,WeatherDisplay:10.37,2013-11-11 13:48:00,
2013-11-11 08:53:00,39.9,34.5,30.06,South,189,5.5,6.0,81,0.00,BKN,,0.00,WeatherDisplay:10.37,2013-11-11 13:53:00,
2013-11-11 08:58:00,40.3,34.9,30.05,SSW,204,2.4,4.6,81,0.00,BKN,,0.00,WeatherDisplay:10.37,2013-11-11 13:58:00,
2013-11-11 09:03:00,40.9,35.5,30.05,SW,232,6.2,10.0,81,0.00,OVC,,0.00,WeatherDisplay:10.37,2013-11-11 14:03:00,
2013-11-11 09:08:00,41.6,36.2,30.04,SW,215,5.9,10.4,81,0.00,OVC,,0.00,WeatherDisplay:10.37,2013-11-11 14:08:00,
2013-11-11 09:13:00,42.3,36.3,30.04,South,180,8.7,11.5,79,0.00,OVC,,0.00,WeatherDisplay:10.37,2013-11-11 14:13:00,
2013-11-11 09:18:00,42.8,36.4,30.04,SSW,210,8.6,13.8,78,0.00,OVC,,0.00,WeatherDisplay:10.37,2013-11-11 14:18:00,
2013-11-11 09:23:00,43.1,36.7,30.03,SW,232,7.3,12.0,78,0.00,OVC,,0.00,WeatherDisplay:10.37,2013-11-11 14:23:00,
2013-11-11 09:28:00,43.2,36.8,30.03,SW,221,7.5,18.4,78,0.00,OVC,,0.00,WeatherDisplay:10.37,2013-11-11 14:28:00,
2013-11-11 09:33:00,43.2,36.5,30.03,SW,229,7.2,9.2,77,0.00,OVC,,0.00,WeatherDisplay:10.37,2013-11-11 14:33:00,
2013-11-11 09:39:00,43.0,36.3,30.02,WSW,245,8.8,11.5,77,0.00,OVC,,0.00,WeatherDisplay:10.37,2013-11-11 14:39:00,
2013-11-11 09:44:00,42.8,36.4,30.02,SW,224,6.2,11.0,78,0.00,OVC,,0.00,WeatherDisplay:10.37,2013-11-11 14:44:00,
2013-11-11 09:49:00,42.7,36.3,30.02,SW,224,8.0,11.5,78,0.00,OVC,,0.00,WeatherDisplay:10.37,2013-11-11 14:49:00,
2013-11-11 09:54:00,42.7,36.3,30.02,SW,217,10.1,12.7,78,0.00,OVC,,0.00,WeatherDisplay:10.37,2013-11-11 14:54:00,
2013-11-11 09:59:00,42.7,36.3,30.01,SW,217,8.1,11.5,78,0.00,OVC,,0.00,WeatherDisplay:10.37,2013-11-11 14:59:00,
2013-11-11 10:04:00,42.9,36.5,30.01,South,186,13.6,19.6,78,0.00,OVC,,0.00,WeatherDisplay:10.37,2013-11-11 15:04:00,
2013-11-11 10:09:00,43.1,36.7,30.01,SSW,211,8.4,11.5,78,0.00,OVC,,0.00,WeatherDisplay:10.37,2013-11-11 15:09:00,
2013-11-11 10:14:00,43.2,36.8,30.00,SW,232,11.8,17.3,78,0.00,OVC,,0.00,WeatherDisplay:10.37,2013-11-11 15:14:00,
2013-11-11 10:19:00,43.3,36.9,30.01,SW,222,9.5,16.0,78,0.00,OVC,,0.00,WeatherDisplay:10.37,2013-11-11 15:19:00,
2013-11-11 10:24:00,43.5,36.8,30.00,SW,229,8.4,12.0,77,0.00,OVC,,0.00,WeatherDisplay:10.37,2013-11-11 15:24:00,
2013-11-11 10:29:00,43.6,36.5,30.00,SW,220,8.3,15.0,76,0.00,OVC,,0.00,WeatherDisplay:10.37,2013-11-11 15:29:00,
2013-11-11 10:34:00,43.7,36.6,30.00,SW,224,10.3,20.0,76,0.00,OVC,,0.00,WeatherDisplay:10.37,2013-11-11 15:34:00,
2013-11-11 10:39:00,43.8,36.7,30.00,WSW,245,10.3,13.8,76,0.00,OVC,,0.00,WeatherDisplay:10.37,2013-11-11 15:39:00,
2013-11-11 10:44:00,44.1,37.0,29.99,SSW,201,8.7,12.7,76,0.00,OVC,,0.00,WeatherDisplay:10.37,2013-11-11 15:44:00,
2013-11-11 10:49:00,44.4,37.0,30.00,SSW,208,10.7,17.3,75,0.00,OVC,,0.00,WeatherDisplay:10.37,2013-11-11 15:49:00,
2013-11-11 10:54:00,44.6,37.2,29.99,SSW,210,11.0,17.3,75,0.00,OVC,,0.00,WeatherDisplay:10.37,2013-11-11 15:54:00,
2013-11-11 10:59:00,44.7,36.9,29.99,SW,236,10.1,16.1,74,0.00,OVC,,0.00,WeatherDisplay:10.37,2013-11-11 15:59:00,
2013-11-11 11:04:00,44.6,36.8,29.99,SW,231,7.9,11.5,74,0.00,OVC,,0.00,WeatherDisplay:10.37,2013-11-11 16:04:00,
2013-11-11 11:09:00,44.7,36.9,29.99,WSW,255,10.5,13.8,74,0.00,OVC,,0.00,WeatherDisplay:10.37,2013-11-11 16:09:00,
2013-11-11 11:14:00,44.7,36.6,29.98,South,183,9.0,18.4,73,0.00,OVC,,0.00,WeatherDisplay:10.37,2013-11-11 16:14:00,
2013-11-11 11:19:00,44.7,35.9,29.98,SW,224,16.3,24.2,71,0.00,OVC,,0.00,WeatherDisplay:10.37,2013-11-11 16:19:00,
2013-11-11 11:24:00,44.7,35.9,29.98,South,169,11.6,18.4,71,0.00,OVC,,0.00,WeatherDisplay:10.37,2013-11-11 16:24:00,
2013-11-11 11:29:00,44.5,35.7,29.98,WSW,256,12.7,16.1,71,0.00,OVC,,0.00,WeatherDisplay:10.37,2013-11-11 16:29:00,
2013-11-11 11:34:00,44.3,35.5,29.98,SSW,213,11.3,17.3,71,0.00,OVC,,0.00,WeatherDisplay:10.37,2013-11-11 16:34:00,
2013-11-11 11:39:00,44.2,35.7,29.97,SSW,213,8.2,11.5,72,0.00,OVC,,0.00,WeatherDisplay:10.37,2013-11-11 16:39:00,
2013-11-11 11:44:00,44.2,35.7,29.97,SW,218,14.1,19.6,72,0.00,OVC,,0.00,WeatherDisplay:10.37,2013-11-11 16:44:00,
2013-11-11 11:49:00,44.1,35.6,29.97,SSW,194,13.5,20.7,72,0.00,OVC,,0.00,WeatherDisplay:10.37,2013-11-11 16:49:00,
2013-11-11 11:54:00,44.0,35.9,29.97,SW,233,13.6,19.6,73,0.00,OVC,,0.00,WeatherDisplay:10.37,2013-11-11 16:54:00,
2013-11-11 11:59:00,43.9,35.8,29.97,SW,224,14.8,24.2,73,0.00,OVC,,0.00,WeatherDisplay:10.37,2013-11-11 16:59:00,
2013-11-11 12:04:00,44.0,35.6,29.96,SSW,211,11.6,15.0,72,0.00,OVC,,0.00,WeatherDisplay:10.37,2013-11-11 17:04:00,
2013-11-11 12:09:00,44.1,35.6,29.95,SW,234,14.0,19.6,72,0.00,OVC,,0.00,WeatherDisplay:10.37,2013-11-11 17:09:00,
2013-11-11 12:14:00,44.1,35.6,29.95,SSW,192,13.5,17.3,72,0.00,OVC,,0.00,WeatherDisplay:10.37,2013-11-11 17:14:00,
2013-11-11 12:19:00,44.1,35.6,29.95,SW,217,14.6,19.6,72,0.00,OVC,,0.00,WeatherDisplay:10.37,2013-11-11 17:19:00,
2013-11-11 12:24:00,44.1,36.0,29.95,SSW,213,14.4,20.7,73,0.00,OVC,,0.00,WeatherDisplay:10.37,2013-11-11 17:24:00,
2013-11-11 12:29:00,44.3,36.2,29.95,WSW,250,14.9,20.7,73,0.00,OVC,,0.00,WeatherDisplay:10.37,2013-11-11 17:29:00,
2013-11-11 12:34:00,44.3,36.2,29.94,SSW,204,14.4,19.6,73,0.00,OVC,,0.00,WeatherDisplay:10.37,2013-11-11 17:34:00,
2013-11-11 12:39:00,44.4,37.0,29.94,SW,217,16.6,18.4,75,0.00,OVC,,0.00,WeatherDisplay:10.37,2013-11-11 17:39:00,
2013-11-11 12:44:00,44.4,37.3,29.93,WSW,243,13.6,19.6,76,0.00,OVC,,0.00,WeatherDisplay:10.37,2013-11-11 17:44:00,
2013-11-11 12:49:00,44.3,37.2,29.93,SSW,207,13.8,15.0,76,0.00,OVC,,0.00,WeatherDisplay:10.37,2013-11-11 17:49:00,
2013-11-11 12:54:00,44.2,37.4,29.93,SW,230,18.2,24.2,77,0.00,OVC,,0.00,WeatherDisplay:10.37,2013-11-11 17:54:00,
2013-11-11 12:59:00,44.0,37.9,29.93,SSW,210,11.5,18.0,79,0.00,OVC,,0.00,WeatherDisplay:10.37,2013-11-11 17:59:00,
2013-11-11 13:04:00,43.8,37.7,29.93,WSW,245,15.0,20.0,79,0.00,-RA,,0.00,WeatherDisplay:10.37,2013-11-11 18:04:00,
2013-11-11 13:09:00,43.6,38.2,29.93,WSW,243,16.5,19.0,81,0.00,-RA,,0.00,WeatherDisplay:10.37,2013-11-11 18:09:00,
2013-11-11 13:14:00,43.4,38.6,29.92,SSW,207,12.5,13.8,83,0.00,-RA,,0.00,WeatherDisplay:10.37,2013-11-11 18:14:00,
2013-11-11 13:19:00,43.2,38.7,29.93,SW,236,12.3,20.7,84,0.00,-RA,,0.00,WeatherDisplay:10.37,2013-11-11 18:19:00,
2013-11-11 13:24:00,43.1,38.6,29.92,WNW,288,12.7,19.6,84,0.00,-RA,,0.00,WeatherDisplay:10.37,2013-11-11 18:24:00,
2013-11-11 13:29:00,43.0,38.8,29.92,SW,227,10.9,17.3,85,0.00,-RA,,0.00,WeatherDisplay:10.37,2013-11-11 18:29:00,
2013-11-11 13:34:00,42.8,38.9,29.92,SW,228,14.8,17.3,86,0.00,-RA,,0.00,WeatherDisplay:10.37,2013-11-11 18:34:00,
2013-11-11 13:39:00,42.8,38.9,29.92,SW,225,15.5,21.9,86,0.00,-RA,,0.00,WeatherDisplay:10.37,2013-11-11 18:39:00,
2013-11-11 13:44:00,42.7,39.1,29.92,West,264,10.4,18.4,87,0.00,-RA,,0.00,WeatherDisplay:10.37,2013-11-11 18:44:00,
2013-11-11 13:49:00,42.6,39.0,29.92,WSW,246,17.1,19.6,87,0.00,-RA,,0.00,WeatherDisplay:10.37,2013-11-11 18:49:00,
2013-11-11 13:54:00,42.6,39.3,29.92,WSW,241,11.9,19.6,88,0.00,-RA,,0.00,WeatherDisplay:10.37,2013-11-11 18:54:00,
2013-11-11 13:59:00,42.5,39.2,29.92,SW,226,14.6,16.1,88,0.00,-RA,,0.00,WeatherDisplay:10.37,2013-11-11 18:59:00,
2013-11-11 14:04:00,42.4,39.4,29.92,SSW,210,10.3,17.3,89,0.00,-RA,,0.00,WeatherDisplay:10.37,2013-11-11 19:04:00,
2013-11-11 14:09:00,42.3,39.3,29.91,SSW,208,13.9,18.4,89,0.00,-RA,,0.00,WeatherDisplay:10.37,2013-11-11 19:09:00,
2013-11-11 14:14:00,42.3,39.3,29.91,WSW,239,17.4,21.9,89,0.00,-RA,,0.00,WeatherDisplay:10.37,2013-11-11 19:14:00,
2013-11-11 14:19:00,42.2,39.5,29.92,South,177,12.5,19.6,90,0.00,-RA,,0.00,WeatherDisplay:10.37,2013-11-11 19:19:00,
2013-11-11 14:24:00,42.2,39.8,29.92,WSW,244,9.5,13.0,91,0.01,-RA,,0.01,WeatherDisplay:10.37,2013-11-11 19:24:00,
2013-11-11 14:29:00,42.1,39.7,29.92,West,269,12.3,21.9,91,0.01,-RA,,0.01,WeatherDisplay:10.37,2013-11-11 19:29:00,
2013-11-11 14:34:00,42.1,39.4,29.92,WSW,257,15.6,21.0,90,0.01,-RA,,0.01,WeatherDisplay:10.37,2013-11-11 19:34:00,
2013-11-11 14:39:00,42.1,39.4,29.92,WSW,239,10.4,13.0,90,0.01,-RA,,0.01,WeatherDisplay:10.37,2013-11-11 19:39:00,
2013-11-11 14:44:00,42.0,39.3,29.92,WSW,245,11.5,15.0,90,0.01,-RA,,0.01,WeatherDisplay:10.37,2013-11-11 19:44:00,
2013-11-11 14:49:00,41.9,39.2,29.92,SW,226,11.4,12.7,90,0.01, +RA,,0.01,WeatherDisplay:10.37,2013-11-11 19:49:00,
2013-11-11 14:54:00,41.9,39.2,29.92,WSW,244,13.0,20.0,90,0.00, +RA,,0.01,WeatherDisplay:10.37,2013-11-11 19:54:00,
2013-11-11 14:59:00,41.8,39.4,29.92,WSW,256,9.8,12.7,91,0.01, +RA,,0.01,WeatherDisplay:10.37,2013-11-11 19:59:00,
2013-11-11 15:05:00,41.7,39.3,29.92,WSW,238,9.8,15.0,91,0.01,OVC,,0.01,WeatherDisplay:10.37,2013-11-11 20:05:00,
2013-11-11 15:10:00,41.7,39.3,29.92,WSW,243,9.6,13.8,91,0.01,OVC,,0.01,WeatherDisplay:10.37,2013-11-11 20:10:00,
2013-11-11 15:15:00,41.7,39.3,29.92,WSW,250,10.7,13.8,91,0.01,OVC,,0.01,WeatherDisplay:10.37,2013-11-11 20:15:00,
2013-11-11 15:20:00,41.6,38.9,29.92,SW,229,13.9,19.6,90,0.01,OVC,,0.01,WeatherDisplay:10.37,2013-11-11 20:20:00,
2013-11-11 15:25:00,41.6,38.9,29.92,WSW,253,11.1,15.0,90,0.00,OVC,,0.01,WeatherDisplay:10.37,2013-11-11 20:25:00,
2013-11-11 15:30:00,41.5,38.8,29.92,WSW,241,10.6,16.1,90,0.00,OVC,,0.01,WeatherDisplay:10.37,2013-11-11 20:30:00,
2013-11-11 15:35:00,41.4,38.7,29.92,WSW,252,14.7,19.6,90,0.00,OVC,,0.01,WeatherDisplay:10.37,2013-11-11 20:35:00,
2013-11-11 15:40:00,41.3,38.6,29.93,WSW,245,9.6,13.0,90,0.00,OVC,,0.01,WeatherDisplay:10.37,2013-11-11 20:40:00,
2013-11-11 15:45:00,41.2,38.8,29.93,WSW,256,12.6,17.3,91,0.00,OVC,,0.01,WeatherDisplay:10.37,2013-11-11 20:45:00,
2013-11-11 15:50:00,41.1,38.7,29.93,SW,226,10.9,12.7,91,0.00,OVC,,0.01,WeatherDisplay:10.37,2013-11-11 20:50:00,
2013-11-11 15:55:00,41.0,38.6,29.93,West,266,8.9,11.5,91,0.00,OVC,,0.01,WeatherDisplay:10.37,2013-11-11 20:55:00,
2013-11-11 16:00:00,40.9,38.5,29.93,SSW,192,15.1,19.6,91,0.00,OVC,,0.01,WeatherDisplay:10.37,2013-11-11 21:00:00,
2013-11-11 16:05:00,40.9,38.5,29.93,SW,235,10.4,17.0,91,0.00,OVC,,0.01,WeatherDisplay:10.37,2013-11-11 21:05:00,
2013-11-11 16:10:00,40.7,38.3,29.93,WNW,283,11.0,15.0,91,0.00,OVC,,0.01,WeatherDisplay:10.37,2013-11-11 21:10:00,
2013-11-11 16:15:00,40.7,38.3,29.93,WSW,250,11.9,15.0,91,0.00,OVC,,0.01,WeatherDisplay:10.37,2013-11-11 21:15:00,
2013-11-11 16:20:00,40.6,38.2,29.93,WNW,293,10.7,15.0,91,0.00,OVC,,0.01,WeatherDisplay:10.37,2013-11-11 21:20:00,
2013-11-11 16:25:00,40.6,38.2,29.93,WSW,248,9.7,13.8,91,0.00,OVC,,0.01,WeatherDisplay:10.37,2013-11-11 21:25:00,
2013-11-11 16:30:00,40.6,38.2,29.93,West,267,9.4,15.0,91,0.00,OVC,,0.01,WeatherDisplay:10.37,2013-11-11 21:30:00,
2013-11-11 16:35:00,40.5,37.8,29.93,West,259,8.4,15.0,90,0.00,OVC,,0.01,WeatherDisplay:10.37,2013-11-11 21:35:00,
2013-11-11 16:40:00,40.5,38.1,29.93,SW,226,9.0,11.5,91,0.00,OVC,,0.01,WeatherDisplay:10.37,2013-11-11 21:40:00,
2013-11-11 16:45:00,40.4,38.3,29.94,WSW,240,9.2,12.7,92,0.01,RA,,0.02,WeatherDisplay:10.37,2013-11-11 21:45:00,
2013-11-11 16:50:00,40.2,37.8,29.94,West,276,14.0,18.4,91,0.01,-RA,,0.02,WeatherDisplay:10.37,2013-11-11 21:50:00,
2013-11-11 16:55:00,40.1,37.7,29.94,WSW,243,10.6,13.8,91,0.01,-RA,,0.02,WeatherDisplay:10.37,2013-11-11 21:55:00,
2013-11-11 17:00:00,40.1,37.7,29.94,SW,232,11.1,16.1,91,0.01,-RA,,0.02,WeatherDisplay:10.37,2013-11-11 22:00:00,
2013-11-11 17:05:00,40.0,37.6,29.94,NW,310,9.3,19.6,91,0.01,-RA,,0.02,WeatherDisplay:10.37,2013-11-11 22:05:00,
2013-11-11 17:10:00,39.9,37.8,29.94,WSW,255,8.5,13.8,92,0.01,-RA,,0.02,WeatherDisplay:10.37,2013-11-11 22:10:00,
2013-11-11 17:15:00,39.8,37.7,29.94,SW,233,7.3,13.8,92,0.02,-RA,,0.03,WeatherDisplay:10.37,2013-11-11 22:15:00,
2013-11-11 17:20:00,39.7,37.6,29.95,WNW,288,7.6,8.1,92,0.02,-RA,,0.03,WeatherDisplay:10.37,2013-11-11 22:20:00,
2013-11-11 17:25:00,39.6,37.5,29.94,WSW,257,8.3,11.0,92,0.03,-RA,,0.04,WeatherDisplay:10.37,2013-11-11 22:25:00,
2013-11-11 17:30:00,39.6,37.5,29.95,WNW,290,6.8,8.1,92,0.03,-RA,,0.04,WeatherDisplay:10.37,2013-11-11 22:30:00,
2013-11-11 17:35:00,39.5,37.4,29.95,WNW,295,6.5,11.5,92,0.04,-RA,,0.05,WeatherDisplay:10.37,2013-11-11 22:35:00,
2013-11-11 17:40:00,39.4,37.3,29.95,WSW,248,6.4,9.2,92,0.04,-RA,,0.05,WeatherDisplay:10.37,2013-11-11 22:40:00,
2013-11-11 17:45:00,39.3,37.2,29.96,NW,324,11.9,17.3,92,0.04,-RA,,0.06,WeatherDisplay:10.37,2013-11-11 22:45:00,
2013-11-11 17:50:00,38.2,35.5,29.97,NW,316,9.4,13.8,90,0.04,-RA,,0.06,WeatherDisplay:10.37,2013-11-11 22:50:00,
2013-11-11 17:55:00,37.0,34.3,29.97,NW,325,11.6,15.0,90,0.05,-RA,,0.07,WeatherDisplay:10.37,2013-11-11 22:55:00,
2013-11-11 18:00:00,35.9,33.8,29.98,NNW,345,6.8,10.4,92,0.06,-RA,,0.08,WeatherDisplay:10.37,2013-11-11 23:00:00,
2013-11-11 18:05:00,35.2,33.4,29.98,NNW,339,6.4,15.0,93,0.06,-RA,,0.08,WeatherDisplay:10.37,2013-11-11 23:05:00,
2013-11-11 18:10:00,34.8,33.0,29.98,NW,320,7.2,16.1,93,0.07,-RA,,0.09,WeatherDisplay:10.37,2013-11-11 23:10:00,
2013-11-11 18:15:00,34.4,32.6,29.99,NNW,336,12.1,21.9,93,0.06,-RA,,0.09,WeatherDisplay:10.37,2013-11-11 23:15:00,
2013-11-11 18:20:00,34.0,32.5,29.99,NW,315,8.0,13.8,94,0.06,OVC,,0.09,WeatherDisplay:10.37,2013-11-11 23:20:00,
2013-11-11 18:25:00,33.8,32.3,29.99,NW,321,11.1,13.8,94,0.05,OVC,,0.09,WeatherDisplay:10.37,2013-11-11 23:25:00,
2013-11-11 18:30:00,33.6,32.1,29.99,NW,321,8.2,10.0,94,0.05,OVC,,0.09,WeatherDisplay:10.37,2013-11-11 23:30:00,
2013-11-11 18:35:00,33.5,32.0,30.00,NNW,332,6.1,8.1,94,0.04,OVC,,0.09,WeatherDisplay:10.37,2013-11-11 23:35:00,
2013-11-11 18:40:00,33.3,32.0,30.00,WNW,297,4.5,8.1,95,0.04,OVC,,0.09,WeatherDisplay:10.37,2013-11-11 23:40:00,
2013-11-11 18:45:00,33.2,31.9,30.00,NW,307,6.5,10.4,95,0.03,OVC,,0.09,WeatherDisplay:10.37,2013-11-11 23:45:00,
2013-11-11 18:50:00,33.2,31.9,30.00,NW,325,6.2,10.4,95,0.03,OVC,,0.09,WeatherDisplay:10.37,2013-11-11 23:50:00,
2013-11-11 18:55:00,33.1,31.8,30.00,NNW,327,7.9,10.4,95,0.02,OVC,,0.09,WeatherDisplay:10.37,2013-11-11 23:55:00,
2013-11-11 19:00:00,33.1,31.8,30.00,NNW,340,8.9,13.0,95,0.01,OVC,,0.09,WeatherDisplay:10.37,2013-11-12 00:00:00,
2013-11-11 19:05:00,33.0,31.7,30.01,NW,304,6.1,8.1,95,0.01,-SN,,0.09,WeatherDisplay:10.37,2013-11-12 00:05:00,
2013-11-11 19:10:00,32.9,31.6,30.01,WNW,285,5.1,9.2,95,0.00,-SN,,0.09,WeatherDisplay:10.37,2013-11-12 00:10:00,
2013-11-11 19:15:00,32.9,31.6,30.01,North,351,6.9,9.2,95,0.00,-SN,,0.09,WeatherDisplay:10.37,2013-11-12 00:15:00,
2013-11-11 19:21:00,32.8,31.5,30.01,WNW,297,6.6,8.1,95,0.00,-SN,,0.09,WeatherDisplay:10.37,2013-11-12 00:21:00,
2013-11-11 19:26:00,32.8,31.5,30.01,NNW,340,5.5,8.1,95,0.00,-SN,,0.09,WeatherDisplay:10.37,2013-11-12 00:26:00,
2013-11-11 19:31:00,32.8,31.5,30.01,NW,318,6.9,11.0,95,0.00,-SN,,0.09,WeatherDisplay:10.37,2013-11-12 00:31:00,
2013-11-11 19:36:00,32.7,31.4,30.02,NNW,327,13.5,15.0,95,0.00,-SN,,0.09,WeatherDisplay:10.37,2013-11-12 00:36:00,
2013-11-11 19:41:00,32.4,31.1,30.02,NNW,334,12.6,16.1,95,0.00,-SN,,0.09,WeatherDisplay:10.37,2013-11-12 00:41:00,
2013-11-11 19:46:00,32.1,30.8,30.03,NW,315,9.6,18.4,95,0.00,-SN,,0.09,WeatherDisplay:10.37,2013-11-12 00:46:00,
2013-11-11 19:51:00,32.0,30.7,30.03,NW,326,9.2,11.5,95,0.00,-SN,,0.09,WeatherDisplay:10.37,2013-11-12 00:51:00,
2013-11-11 19:56:00,31.8,30.5,30.03,NW,326,7.5,13.8,95,0.00,-SN,,0.09,WeatherDisplay:10.37,2013-11-12 00:56:00,
2013-11-11 20:01:00,31.8,30.5,30.03,NW,325,8.5,10.4,95,0.00,-SN,,0.09,WeatherDisplay:10.37,2013-11-12 01:01:00,
2013-11-11 20:06:00,31.6,30.3,30.04,NNW,330,8.7,11.5,95,0.00,-SN,,0.09,WeatherDisplay:10.37,2013-11-12 01:06:00,
2013-11-11 20:11:00,31.3,29.8,30.04,WNW,297,10.8,18.4,94,0.00,-SN,,0.09,WeatherDisplay:10.37,2013-11-12 01:11:00,
2013-11-11 20:16:00,31.0,29.5,30.05,NW,314,8.3,12.0,94,0.00,-SN,,0.09,WeatherDisplay:10.37,2013-11-12 01:16:00,
2013-11-11 20:21:00,30.8,29.3,30.05,WNW,295,7.5,9.2,94,0.00,-SN,,0.09,WeatherDisplay:10.37,2013-11-12 01:21:00,
2013-11-11 20:26:00,30.4,28.9,30.05,NW,318,10.6,19.6,94,0.00,-SN,,0.09,WeatherDisplay:10.37,2013-11-12 01:26:00,
2013-11-11 20:31:00,30.3,28.8,30.06,WNW,301,5.4,8.1,94,0.00,-SN,,0.09,WeatherDisplay:10.37,2013-11-12 01:31:00,
2013-11-11 20:36:00,30.2,28.7,30.06,NW,308,9.0,9.0,94,0.00,-SN,,0.09,WeatherDisplay:10.37,2013-11-12 01:36:00,
2013-11-11 20:41:00,30.0,28.5,30.06,WNW,300,12.1,15.0,94,0.00,-SN,,0.09,WeatherDisplay:10.37,2013-11-12 01:41:00,
2013-11-11 20:46:00,29.8,28.0,30.06,WNW,293,10.2,13.8,93,0.00,-SN,,0.09,WeatherDisplay:10.37,2013-11-12 01:46:00,
2013-11-11 20:51:00,29.6,27.6,30.06,NW,318,4.5,11.5,92,0.00,-SN,,0.09,WeatherDisplay:10.37,2013-11-12 01:51:00,
2013-11-11 20:56:00,29.5,27.7,30.06,WNW,284,4.7,9.2,93,0.00,-SN,,0.09,WeatherDisplay:10.37,2013-11-12 01:56:00,
2013-11-11 21:01:00,29.5,27.5,30.06,West,281,4.6,9.2,92,0.00,-SN,,0.09,WeatherDisplay:10.37,2013-11-12 02:01:00,
2013-11-11 21:06:00,29.5,27.5,30.06,West,274,4.2,9.2,92,0.00,-SN,,0.09,WeatherDisplay:10.37,2013-11-12 02:06:00,
2013-11-11 21:11:00,29.6,27.6,30.06,WNW,284,5.9,7.0,92,0.00,-SN,,0.09,WeatherDisplay:10.37,2013-11-12 02:11:00,
2013-11-11 21:16:00,29.6,27.0,30.06,North,355,4.2,5.8,90,0.00,-SN,,0.09,WeatherDisplay:10.37,2013-11-12 02:16:00,
2013-11-11 21:21:00,29.9,26.2,30.06,NW,326,10.2,16.1,86,0.00,-SN,,0.09,WeatherDisplay:10.37,2013-11-12 02:21:00,
2013-11-11 21:26:00,30.2,25.7,30.06,NW,307,7.0,9.2,83,0.00,-SN,,0.09,WeatherDisplay:10.37,2013-11-12 02:26:00,
2013-11-11 21:31:00,30.6,25.2,30.07,WNW,297,6.7,10.4,80,0.00,-SN,,0.09,WeatherDisplay:10.37,2013-11-12 02:31:00,
2013-11-11 21:36:00,30.7,25.6,30.07,NW,307,4.1,5.8,81,0.00,-SN,,0.09,WeatherDisplay:10.37,2013-11-12 02:36:00,
2013-11-11 21:41:00,30.7,25.6,30.07,NW,308,4.7,5.8,81,0.00,-SN,,0.09,WeatherDisplay:10.37,2013-11-12 02:41:00,
2013-11-11 21:46:00,30.8,25.7,30.07,NW,315,4.8,7.0,81,0.00,-SN,,0.09,WeatherDisplay:10.37,2013-11-12 02:46:00,
2013-11-11 21:51:00,30.9,25.5,30.08,WNW,300,5.2,9.2,80,0.00,-SN,,0.09,WeatherDisplay:10.37,2013-11-12 02:51:00,
2013-11-11 21:56:00,31.0,25.6,30.08,NW,304,3.1,6.9,80,0.00,-SN,,0.09,WeatherDisplay:10.37,2013-11-12 02:56:00,
2013-11-11 22:01:00,31.0,25.6,30.08,NW,304,4.4,9.2,80,0.00,-SN,,0.09,WeatherDisplay:10.37,2013-11-12 03:01:00,
2013-11-11 22:06:00,31.1,25.7,30.08,NW,304,3.3,5.8,80,0.00,-SN,,0.09,WeatherDisplay:10.37,2013-11-12 03:06:00,
2013-11-11 22:11:00,31.3,25.2,30.08,NW,318,8.2,12.7,78,0.00,-SN,,0.09,WeatherDisplay:10.37,2013-11-12 03:11:00,
2013-11-11 22:16:00,31.5,25.1,30.08,NW,317,6.0,12.7,77,0.00,-SN,,0.09,WeatherDisplay:10.37,2013-11-12 03:16:00,
2013-11-11 22:21:00,31.4,25.3,30.08,WSW,245,4.6,9.2,78,0.00,-SN,,0.09,WeatherDisplay:10.37,2013-11-12 03:21:00,
2013-11-11 22:26:00,31.4,25.3,30.08,WNW,295,5.7,10.4,78,0.00,-SN,,0.09,WeatherDisplay:10.37,2013-11-12 03:26:00,
2013-11-11 22:31:00,31.4,25.3,30.09,NW,304,8.1,10.4,78,0.00,-SN,,0.09,WeatherDisplay:10.37,2013-11-12 03:31:00,
2013-11-11 22:36:00,31.4,25.3,30.09,NW,304,6.4,9.2,78,0.00,-SN,,0.09,WeatherDisplay:10.37,2013-11-12 03:36:00,
2013-11-11 22:41:00,31.4,25.0,30.09,WNW,301,6.4,8.1,77,0.00,-SN,,0.09,WeatherDisplay:10.37,2013-11-12 03:41:00,
2013-11-11 22:46:00,31.4,25.3,30.10,WNW,302,7.6,11.5,78,0.00,-SN,,0.09,WeatherDisplay:10.37,2013-11-12 03:46:00,
2013-11-11 22:51:00,31.3,24.9,30.10,NW,318,5.3,9.2,77,0.00,-SN,,0.09,WeatherDisplay:10.37,2013-11-12 03:51:00,
2013-11-11 22:56:00,31.2,24.8,30.10,NW,311,6.3,10.4,77,0.00,-SN,,0.09,WeatherDisplay:10.37,2013-11-12 03:56:00,
2013-11-11 23:01:00,31.2,25.1,30.10,NW,318,5.7,11.5,78,0.00,OVC,,0.09,WeatherDisplay:10.37,2013-11-12 04:01:00,
2013-11-11 23:06:00,31.2,24.8,30.10,NW,314,6.8,10.4,77,0.00,OVC,,0.09,WeatherDisplay:10.37,2013-11-12 04:06:00,
2013-11-11 23:11:00,31.1,25.0,30.11,NW,320,5.9,8.1,78,0.00,OVC,,0.09,WeatherDisplay:10.37,2013-11-12 04:11:00,
2013-11-11 23:16:00,31.0,25.2,30.11,NNW,330,6.4,9.0,79,0.00,OVC,,0.09,WeatherDisplay:10.37,2013-11-12 04:16:00,
2013-11-11 23:22:00,31.1,25.3,30.11,NW,307,8.2,11.5,79,0.00,OVC,,0.09,WeatherDisplay:10.37,2013-11-12 04:22:00,
2013-11-11 23:27:00,31.1,24.7,30.11,NNW,340,5.8,9.2,77,0.00,OVC,,0.09,WeatherDisplay:10.37,2013-11-12 04:27:00,
2013-11-11 23:32:00,31.0,24.0,30.11,NW,321,8.5,13.0,75,0.00,OVC,,0.09,WeatherDisplay:10.37,2013-11-12 04:32:00,
2013-11-11 23:37:00,30.9,24.2,30.11,NW,326,8.1,11.5,76,0.00,OVC,,0.09,WeatherDisplay:10.37,2013-11-12 04:37:00,
2013-11-11 23:42:00,30.8,24.1,30.12,NNW,334,7.1,9.2,76,0.00,OVC,,0.09,WeatherDisplay:10.37,2013-11-12 04:42:00,
2013-11-11 23:47:00,30.7,24.0,30.12,NW,318,8.0,11.0,76,0.00,OVC,,0.09,WeatherDisplay:10.37,2013-11-12 04:47:00,
2013-11-11 23:52:00,30.6,24.2,30.13,NW,315,6.3,8.1,77,0.00,OVC,,0.09,WeatherDisplay:10.37,2013-11-12 04:52:00,
2013-11-11 23:57:00,30.5,24.1,30.13,NW,326,5.3,8.0,77,0.00,OVC,,0.09,WeatherDisplay:10.37,2013-11-12 04:57:00,